Tracking 32936 objects as of 16-Jan-2026
HD Live streaming from Space Station
objects crossing your sky now

STARLINK-31248

Track STARLINK-31248 now!
10-day predictions
STARLINK-31248 is classified as:


NORAD ID: 58840
Int'l Code: 2024-017Q
Perigee: 481.6 km
Apogee: 483.1 km
Inclination: 53.2 °
Period: 94.1 minutes
Semi major axis: 6853 km
RCS: Unknown
Launch date: January 24, 2024
Source: United States (US)
Launch site: AIR FORCE WESTERN TEST RANGE (AFWTR)
Your satellite tracking list
Your tracking list is empty




NASA's NSSDC Master Catalog

Two Line Element Set (TLE):
1 58840U 24017Q   26015.61916019  .00000309  00000-0  22562-4 0  9999
2 58840  53.1599 103.3898 0001105  98.3343 261.7783 15.30193554111865
Source of the keplerian elements: AFSPC